{"data":{"norad_id":68464,"epoch":"2026-05-25T03:50:55.619808Z","epoch_age_seconds":74929,"freshness":"FRESH","line1":"1 68464U 26067BA  26145.16036597  .00004390  00000+0  22266-3 0  9990","line2":"2 68464  97.4504 103.8915 0004046 138.1859 221.9685 15.17449793  8444","mean_motion":15.17449793,"eccentricity":0.0004046,"inclination_deg":97.4504,"raan_deg":103.8915,"arg_perigee_deg":138.1859,"mean_anomaly_deg":221.9685,"bstar":0.00022266,"rev_number":844,"period_min":94.896055648281,"perigee_km":510.76282866696,"apogee_km":516.33958276302,"semimajor_km":6891.688205715,"source":"CELESTRAK","updated_at":"2026-05-25T13:38:07.846843Z"}}